Location: Heisler
(52.6701°N, 112.2239°W)
Time: 14:21:44
(UTC+00:00)

Envisat - Pass Details

Date: 03 December 2021
Orbit: 764 x 766 km, 98.2° (Epoch: 26 January)

Event Time Altitude Azimuth Distance (km) Brightness Sun altitude
Rises 00:46:01 0° 206° (SSW) 3,223 7.0 -12.7°
Reaches altitude 10° 00:48:53 10° 223° (SW) 2,303 6.5 -13.1°
Maximum altitude 00:52:39 21° 271° (W) 1,694 5.7 -13.6°
Drops below altitude 10° 00:56:26 10° 319° (NW) 2,316 5.8 -14.2°
Sets 00:59:20 0° 336° (NNW) 3,248 6.3 -14.6°
